GW6387 Weather Reports


time (UTC)temp
C
wind
direction
speed
KPH
gust
KPH
rain 1hr
cm
rain 24hr
cm
rain mn
cm
humidity
%
barometer
mb
20260506231828 7 0 0.0 0.0 0.00 0.00 1.17 99 1009.7
20260506231327 7 196 0.0 0.0 0.00 0.00 1.17 99 1010.0
20260506230828 7 272 0.0 0.0 0.00 0.00 1.17 98 1010.1
20260506230328 7 199 0.0 1.6 0.00 0.00 1.17 98 1010.0
20260506225827 7 217 1.6 3.2 0.00 0.00 1.17 98 1010.2
20260506225328 7 0 0.0 0.0 0.00 0.00 1.17 98 1010.1
20260506224827 7 244 0.0 1.6 0.00 0.00 1.17 98 1010.3
20260506224327 7 0 0.0 0.0 0.00 0.00 1.17 98 1010.3
20260506223827 7 190 1.6 1.6 0.00 0.00 1.17 98 1010.2
20260506223328 7 195 1.6 1.6 0.00 0.00 1.17 98 1010.3
20260506222827 7 221 1.6 3.2 0.00 0.00 1.17 98 1010.3
20260506222327 7 248 1.6 3.2 0.00 0.00 1.17 98 1010.4
20260506221827 7 216 3.2 3.2 0.00 0.00 1.17 99 1010.4
20260506221330 7 237 1.6 3.2 0.00 0.00 1.17 99 1010.4
20260506220827 7 273 1.6 1.6 0.00 0.00 1.17 99 1010.3
20260506220328 7 336 3.2 3.2 0.00 0.00 1.17 99 1010.3
20260506215828 7 212 0.0 1.6 0.00 0.00 1.17 99 1010.2
20260506215327 7 303 0.0 1.6 0.00 0.00 1.17 99 1010.0
20260506214830 7 44 0.0 1.6 0.00 0.00 1.17 99 1009.9
20260506214327 7 305 1.6 1.6 0.00 0.00 1.17 99 1009.8
20260506213827 7 341 1.6 3.2 0.00 0.00 1.17 99 1009.8
20260506213328 7 262 1.6 3.2 0.00 0.00 1.17 99 1010.0
20260506212827 7 329 0.0 1.6 0.00 0.00 1.17 99 1010.0
20260506212327 7 358 3.2 4.8 0.00 0.00 1.17 99 1009.9
20260506211827 7 287 0.0 1.6 0.00 0.00 1.17 100 1009.8
20260506211327 7 51 0.0 1.6 0.00 0.00 1.17 100 1009.8
20260506210827 7 323 3.2 3.2 0.00 0.00 1.17 100 1009.8
20260506210327 7 243 3.2 3.2 0.00 0.00 1.17 100 1009.7
20260506205827 7 235 3.2 4.8 0.00 0.00 1.17 99 1009.6
20260506205328 7 258 4.8 6.4 0.00 0.00 1.17 99 1009.6
20260506204828 7 299 1.6 3.2 0.00 0.00 1.17 99 1009.3
20260506204327 7 315 3.2 6.4 0.00 0.00 1.17 99 1009.3
20260506203830 7 343 1.6 3.2 0.00 0.00 1.17 99 1009.2
20260506203328 7 134 1.6 1.6 0.00 0.00 1.17 99 1009.2
20260506202827 7 351 1.6 3.2 0.00 0.00 1.17 99 1009.2
20260506202329 7 13 3.2 4.8 0.00 0.00 1.17 99 1009.1
20260506201828 7 307 1.6 3.2 0.00 0.00 1.17 99 1009.0
20260506201327 7 343 3.2 3.2 0.00 0.00 1.17 99 1009.1
20260506200828 7 356 1.6 3.2 0.00 0.00 1.17 99 1009.1
20260506200328 7 30 1.6 4.8 0.00 0.00 1.17 99 1009.2
20260506195827 7 340 3.2 3.2 0.00 0.00 1.17 99 1009.2
20260506195327 7 23 3.2 3.2 0.00 0.00 1.17 99 1009.2
20260506194829 7 5 3.2 6.4 0.00 0.00 1.17 99 1009.1
20260506194328 7 53 4.8 6.4 0.00 0.00 1.17 99 1009.2
20260506193828 7 11 3.2 3.2 0.00 0.00 1.17 99 1009.1
20260506193328 7 19 3.2 3.2 0.00 0.00 1.17 99 1009.1
20260506192827 7 1 1.6 3.2 0.00 0.00 1.17 99 1009.0
20260506192328 7 0 1.6 3.2 0.00 0.00 1.17 99 1008.9
20260506191828 7 341 3.2 3.2 0.00 0.00 1.17 99 1008.8
20260506191327 7 6 1.6 1.6 0.00 0.00 1.17 99 1008.7
20260506190827 7 359 3.2 4.8 0.00 0.00 1.17 99 1008.8
20260506190327 7 21 3.2 3.2 0.00 0.00 1.17 99 1008.8
20260506185828 7 21 3.2 3.2 0.00 0.00 1.17 99 1008.9
20260506185329 7 342 3.2 3.2 0.00 0.00 1.17 99 1008.9
20260506184827 8 14 3.2 3.2 0.00 0.00 1.17 99 1008.8
20260506184327 8 1 3.2 3.2 0.00 0.00 1.17 99 1008.6
20260506183827 8 8 1.6 1.6 0.00 0.00 1.17 99 1008.5
20260506183328 8 337 1.6 1.6 0.00 0.00 1.17 99 1008.4
20260506182827 8 328 3.2 4.8 0.00 0.00 1.17 99 1008.4
20260506182329 8 18 1.6 3.2 0.00 0.00 1.17 99 1008.4
20260506181827 8 32 1.6 3.2 0.00 0.00 1.17 99 1008.3
20260506181330 8 31 3.2 3.2 0.00 0.00 1.17 99 1008.2
20260506180827 8 358 3.2 3.2 0.00 0.00 1.17 99 1008.2
20260506180327 8 352 3.2 3.2 0.00 0.00 1.17 99 1008.0
20260506175829 8 351 1.6 3.2 0.00 0.00 1.17 99 1007.8
20260506175328 8 351 1.6 1.6 0.00 0.00 1.17 99 1007.9
20260506174827 8 340 0.0 0.0 0.00 0.00 1.17 99 1008.0
20260506174327 8 331 1.6 1.6 0.00 0.00 1.17 99 1008.0
20260506173828 8 269 1.6 3.2 0.00 0.00 1.17 99 1007.9
20260506173327 8 299 1.6 1.6 0.00 0.00 1.17 99 1007.8
20260506172829 8 18 1.6 3.2 0.00 0.00 1.17 99 1007.8
20260506172327 8 209 0.0 1.6 0.00 0.00 1.17 99 1007.9
20260506171827 8 183 0.0 1.6 0.00 0.00 1.17 99 1007.7
20260506171327 8 8 1.6 3.2 0.00 0.00 1.17 99 1007.7
20260506170827 7 68 0.0 1.6 0.00 0.00 1.17 99 1007.7
20260506170329 7 355 1.6 1.6 0.00 0.00 1.17 99 1007.8
20260506165829 7 42 3.2 3.2 0.00 0.00 1.17 99 1007.7
20260506165327 7 47 1.6 3.2 0.00 0.00 1.17 99 1007.8
20260506164829 7 29 3.2 3.2 0.00 0.00 1.17 99 1007.8
20260506164329 7 10 1.6 3.2 0.00 0.00 1.17 99 1008.0
20260506163828 7 38 1.6 3.2 0.00 0.00 1.17 99 1008.0
20260506163327 7 0 0.0 0.0 0.00 0.00 1.17 99 1007.8
20260506162828 7 25 0.0 1.6 0.00 0.00 1.17 99 1007.9
20260506162327 7 335 1.6 1.6 0.00 0.00 1.17 99 1008.0
20260506161827 7 67 1.6 1.6 0.00 0.00 1.17 99 1008.0
20260506161327 7 91 0.0 1.6 0.00 0.00 1.17 99 1008.0
20260506160827 7 41 1.6 1.6 0.03 0.00 1.17 99 1008.1
20260506160328 7 47 1.6 1.6 0.03 0.00 1.17 99 1008.1
20260506155829 7 57 1.6 3.2 0.03 0.00 1.17 99 1008.2
20260506155328 7 24 1.6 3.2 0.03 0.00 1.17 99 1008.2
20260506154829 7 356 1.6 3.2 0.03 0.00 1.17 99 1008.2
20260506154327 7 100 1.6 1.6 0.03 0.00 1.17 99 1008.4
20260506153827 7 17 1.6 1.6 0.05 0.00 1.17 99 1008.4
20260506153329 7 28 1.6 1.6 0.05 0.00 1.17 99 1008.3
20260506152829 7 12 3.2 3.2 0.08 0.00 1.17 99 1008.2
20260506152328 7 39 1.6 3.2 0.10 0.00 1.19 99 1008.4
20260506151828 7 327 0.0 0.0 0.10 0.00 1.17 99 1008.3
20260506151327 6 238 0.0 1.6 0.13 0.00 1.17 99 1008.0
20260506150828 6 15 0.0 1.6 0.13 0.00 1.17 99 1007.9
20260506150329 6 31 1.6 1.6 0.13 0.00 1.14 99 1007.9
20260506145827 6 48 1.6 1.6 0.13 0.00 1.17 99 1007.7
20260506145327 7 77 0.0 0.0 0.15 0.00 1.17 99 1007.8
20260506144827 7 248 0.0 0.0 0.15 0.00 1.14 99 1007.9
20260506144335 7 42 1.6 1.6 0.15 0.00 1.14 99 1007.8
20260506143828 7 113 1.6 1.6 0.15 0.00 1.14 99 1007.9
20260506142922 6 34 1.6 1.6 0.20 0.00 1.12 99 1007.9
20260506142330 6 50 1.6 1.6 0.20 0.00 1.09 99 1008.0
20260506141827 6 41 0.0 1.6 0.23 0.00 1.07 99 1008.1
20260506141329 6 46 3.2 3.2 0.25 0.00 1.07 99 1008.1
20260506140827 6 45 1.6 1.6 0.25 0.00 1.04 99 1008.0
20260506140327 6 33 1.6 1.6 0.25 0.00 1.02 99 1008.1
20260506135828 6 41 3.2 3.2 0.25 0.00 0.99 99 1008.2
20260506135328 6 61 1.6 3.2 0.25 0.00 0.99 99 1008.2
20260506134827 6 53 3.2 3.2 0.23 0.00 0.97 99 1008.2
20260506134327 6 44 1.6 3.2 0.23 0.00 0.94 99 1008.2
20260506133828 6 45 3.2 3.2 0.23 0.00 0.94 99 1008.3
20260506133328 6 42 3.2 3.2 0.23 0.00 0.89 99 1008.3
20260506132828 6 34 1.6 1.6 0.23 0.00 0.89 99 1008.4
20260506132328 6 44 1.6 3.2 0.20 0.00 0.89 99 1008.4
20260506131828 7 30 1.6 3.2 0.23 0.00 0.86 99 1008.3
20260506131328 7 35 3.2 3.2 0.23 0.00 0.84 99 1008.0
20260506130828 7 46 0.0 1.6 0.18 0.00 0.81 99 1008.4
20260506130327 7 342 1.6 1.6 0.18 0.00 0.76 99 1008.6
20260506125827 7 32 1.6 1.6 0.18 0.00 0.74 99 1008.3
20260506125327 7 110 0.0 0.0 0.15 0.00 0.74 99 1008.2
20260506124828 6 327 0.0 1.6 0.15 0.00 0.71 99 1008.2
20260506124328 6 29 3.2 3.2 0.13 0.00 0.69 99 1008.2
20260506123827 7 42 1.6 3.2 0.13 0.00 0.69 99 1008.1
20260506123327 7 71 3.2 3.2 0.13 0.00 0.66 99 1008.1
20260506122828 7 58 1.6 3.2 0.13 0.00 0.66 99 1008.1
20260506122327 7 73 1.6 3.2 0.13 0.00 0.66 99 1008.2
20260506121827 7 32 3.2 4.8 0.13 0.00 0.61 99 1008.1
20260506121328 7 45 3.2 3.2 0.15 0.00 0.61 99 1008.2
20260506120829 7 46 3.2 3.2 0.15 0.00 0.58 99 1008.3
20260506120327 7 36 1.6 3.2 0.20 0.00 0.58 99 1008.2
20260506115827 7 20 3.2 3.2 0.20 0.00 0.58 99 1008.2
20260506115328 7 39 3.2 3.2 0.20 0.00 0.56 99 1008.2
20260506114827 7 42 3.2 3.2 0.20 0.00 0.53 99 1008.2
20260506114327 7 33 3.2 3.2 0.20 0.00 0.53 99 1008.2
20260506113827 7 27 3.2 3.2 0.20 0.00 0.53 99 1008.2
20260506113327 7 32 1.6 1.6 0.20 0.00 0.51 99 1008.2
20260506112827 7 70 1.6 1.6 0.20 0.00 0.51 99 1008.4
20260506112330 7 23 1.6 3.2 0.20 0.00 0.51 99 1008.3
20260506111827 7 297 0.0 0.0 0.18 0.00 0.51 99 1008.4
20260506111327 7 30 0.0 1.6 0.15 0.00 0.51 99 1008.5
20260506110827 7 350 0.0 1.6 0.10 0.00 0.46 99 1008.4
20260506110327 7 37 1.6 1.6 0.10 0.00 0.41 99 1008.4
20260506105828 7 291 0.0 0.0 0.10 0.00 0.38 99 1008.5
20260506105327 7 39 0.0 1.6 0.13 0.00 0.38 99 1008.5
20260506104827 7 272 1.6 3.2 0.13 0.00 0.36 99 1008.6
20260506104327 7 24 1.6 1.6 0.13 0.00 0.36 99 1008.4
20260506103829 7 256 1.6 3.2 0.10 0.00 0.36 99 1008.3
20260506103328 7 30 0.0 1.6 0.10 0.00 0.33 99 1008.2
20260506102827 7 46 0.0 0.0 0.10 0.00 0.30 99 1008.2
20260506102327 7 310 1.6 1.6 0.10 0.00 0.30 99 1008.4
20260506101827 7 44 0.0 0.0 0.10 0.00 0.30 99 1008.4
20260506101327 7 220 0.0 0.0 0.10 0.00 0.30 99 1008.4
20260506100827 7 71 0.0 0.0 0.08 0.00 0.30 99 1008.5
20260506100327 7 0 0.0 0.0 0.08 0.00 0.28 99 1008.5
20260506095827 7 354 0.0 1.6 0.10 0.00 0.28 99 1008.6
20260506095327 7 36 1.6 1.6 0.08 0.00 0.28 99 1008.8
20260506094827 7 189 3.2 3.2 0.08 0.00 0.25 99 1009.0
20260506094327 7 9 3.2 3.2 0.08 0.00 0.25 99 1008.9
20260506093828 7 52 1.6 1.6 0.08 0.00 0.23 99 1009.0
20260506093327 7 210 3.2 4.8 0.08 0.00 0.23 99 1009.3
20260506092827 7 36 4.8 4.8 0.08 0.00 0.20 99 1008.8
20260506092328 7 264 4.8 6.4 0.05 0.00 0.23 99 1009.2
20260506091830 7 51 3.2 4.8 0.08 0.00 0.20 99 1009.2
20260506091331 7 43 4.8 4.8 0.08 0.00 0.20 99 1009.0
20260506090827 7 24 3.2 6.4 0.05 0.00 0.20 99 1008.9
20260506090335 7 20 3.2 3.2 0.08 0.00 0.20 99 1008.8
20260506085827 7 29 4.8 6.4 0.08 0.00 0.20 99 1009.0
20260506085329 8 42 4.8 6.4 0.05 0.00 0.18 99 1009.0
20260506084827 8 26 3.2 3.2 0.05 0.00 0.18 99 1008.8
20260506084328 8 41 4.8 6.4 0.05 0.00 0.18 99 1008.5
20260506083827 8 38 3.2 3.2 0.05 0.00 0.18 99 1008.9
20260506083327 8 37 1.6 1.6 0.05 0.00 0.15 99 1009.0
20260506082827 8 29 1.6 1.6 0.03 0.00 0.15 99 1008.9
20260506082327 8 67 1.6 4.8 0.03 0.00 0.15 99 1009.0
20260506081828 8 30 1.6 3.2 0.03 0.00 0.13 99 1008.8
20260506081327 8 36 3.2 4.8 0.00 0.00 0.13 99 1008.5
20260506080827 8 271 1.6 3.2 0.00 0.00 0.13 99 1009.0
20260506080328 8 280 1.6 3.2 0.00 0.00 0.13 99 1008.9
20260506073328 8 8 0.0 1.6 0.00 0.00 0.13 100 1008.7
20260506072827 8 47 1.6 3.2 0.08 0.00 0.13 99 1008.5
20260506072327 8 31 1.6 1.6 0.20 0.00 0.13 100 1008.6
20260506071828 8 3 1.6 3.2 0.20 0.00 0.20 100 1008.8
20260506071327 8 26 0.0 1.6 0.20 0.00 0.20 100 1009.0
20260506070828 8 262 0.0 1.6 0.20 0.00 0.20 100 1008.9
20260506070327 8 28 0.0 1.6 0.20 0.00 0.20 100 1008.7
20260506062327 8 289 1.6 1.6 0.00 0.00 0.05 100 1009.7
20260506061827 8 28 0.0 1.6 0.00 0.00 0.00 100 1009.7
20260506061330 8 268 1.6 1.6 0.00 0.00 0.00 100 1009.7
20260506060827 8 354 3.2 4.8 0.00 0.00 0.00 100 1009.4
20260506060327 8 258 3.2 6.4 0.00 0.00 0.00 100 1009.8
20260506051327 8 113 1.6 3.2 0.00 0.00 0.00 100 1010.4
20260506050829 8 307 1.6 3.2 0.00 0.00 0.00 100 1010.5
20260506050327 8 34 3.2 3.2 0.00 0.00 0.00 100 1010.1
20260506044827 9 31 1.6 1.6 0.00 0.00 0.00 100 1010.2
20260506044328 9 37 1.6 3.2 0.00 0.00 0.00 100 1010.2
20260506043827 9 33 0.0 1.6 0.00 0.00 0.00 99 1010.1
20260506043327 9 37 0.0 1.6 0.00 0.00 0.00 99 1010.3
20260506042827 9 28 0.0 1.6 0.03 0.00 0.00 99 1010.4
20260506042327 9 2 0.0 1.6 0.03 0.00 0.00 99 1010.4
20260506041827 9 295 0.0 1.6 0.03 0.00 0.00 99 1010.5
20260506041327 9 249 1.6 1.6 0.03 0.00 0.00 99 1010.5
20260506040827 9 21 0.0 1.6 0.03 0.00 0.00 99 1010.4
20260506040327 9 273 0.0 1.6 0.03 0.00 0.00 99 1010.7
20260506035827 9 321 0.0 1.6 0.05 0.00 0.61 99 1010.6
20260506035327 9 60 0.0 1.6 0.05 0.00 0.61 99 1010.4
20260506034827 8 322 1.6 1.6 0.05 0.00 0.61 99 1010.7
20260506034327 9 261 3.2 3.2 0.10 0.00 0.61 99 1010.8
20260506033827 9 342 1.6 3.2 0.10 0.00 0.61 99 1010.6
20260506033328 9 116 0.0 1.6 0.10 0.00 0.61 99 1010.8
20260506032828 9 29 0.0 1.6 0.10 0.00 0.61 99 1011.1
20260506032327 8 219 1.6 3.2 0.08 0.00 0.58 99 1011.2
20260506031828 8 26 1.6 1.6 0.10 0.00 0.56 99 1010.8
20260506031327 8 290 0.0 0.0 0.10 0.00 0.56 98 1011.1
20260506030827 8 246 0.0 1.6 0.10 0.00 0.56 98 1011.2
20260506030327 8 227 1.6 3.2 0.10 0.00 0.56 98 1011.2
20260506025829 8 233 0.0 1.6 0.10 0.00 0.56 98 1011.0
20260506025327 8 31 1.6 3.2 0.05 0.00 0.56 98 1010.7
20260506024827 8 245 0.0 0.0 0.05 0.00 0.53 98 1011.0
20260506024327 8 291 0.0 1.6 0.05 0.00 0.51 98 1011.1
20260506023827 9 139 1.6 3.2 0.05 0.00 0.51 98 1011.1
20260506023328 9 21 1.6 3.2 0.05 0.00 0.48 98 1010.8
20260506022828 9 3 1.6 3.2 0.05 0.00 0.48 98 1011.2
20260506022327 9 3 0.0 1.6 0.03 0.00 0.51 97 1011.1
20260506021828 9 37 0.0 1.6 0.03 0.00 0.51 97 1011.2
20260506021327 9 9 1.6 1.6 0.08 0.00 0.48 97 1011.0
20260506020827 9 293 1.6 3.2 0.08 0.00 0.48 97 1011.3
20260506020327 9 36 3.2 4.8 0.08 0.00 0.48 97 1010.2
20260506015827 9 253 1.6 3.2 0.08 0.00 0.48 97 1011.0
20260506015327 9 76 1.6 4.8 0.08 0.00 0.46 96 1010.5
20260506014827 9 260 3.2 4.8 0.08 0.00 0.46 96 1010.8
20260506014327 9 17 1.6 3.2 0.08 0.00 0.46 95 1010.5
20260506013827 9 35 1.6 3.2 0.05 0.00 0.46 95 1011.0
20260506013328 9 68 1.6 3.2 0.05 0.00 0.46 94 1011.1
20260506012827 9 40 3.2 3.2 0.05 0.00 0.46 94 1011.3
20260506012327 10 31 3.2 8.0 0.03 0.00 0.46 92 1011.0
20260506011827 10 8 1.6 3.2 0.00 0.00 0.43 90 1011.0
20260506011327 10 46 3.2 4.8 0.00 0.00 0.43 87 1011.0
20260506010827 11 335 3.2 6.4 0.00 0.00 0.41 85 1011.1
20260506010327 11 28 3.2 9.7 0.00 0.00 0.41 82 1010.8
20260506005827 12 46 4.8 11.3 0.00 0.00 0.38 78 1010.4
20260506005328 12 34 3.2 8.0 0.00 0.00 0.38 76 1010.2
20260506004827 12 292 3.2 9.7 0.00 0.00 0.38 74 1010.4
20260506004327 12 19 3.2 4.8 0.00 0.00 0.38 76 1010.2
20260506003827 13 8 4.8 8.0 0.00 0.00 0.38 74 1010.1
20260506003327 13 330 1.6 4.8 0.00 0.00 0.38 75 1010.0
20260506002827 13 306 1.6 4.8 0.00 0.00 0.38 74 1009.8
20260506002327 13 320 3.2 6.4 0.00 0.00 0.38 75 1009.5
20260506001828 13 331 4.8 9.7 0.00 0.00 0.38 75 1009.5
20260506001327 13 344 3.2 4.8 0.00 0.00 0.38 74 1009.6
20260506000829 13 18 3.2 4.8 0.00 0.00 0.38 73 1009.5
20260506000330 13 340 8.0 12.9 0.00 0.00 0.38 74 1009.4
20260505235827 13 309 4.8 9.7 0.00 0.00 0.38 78 1009.3
20260505235328 13 287 4.8 9.7 0.00 0.00 0.38 77 1009.0
20260505234827 13 276 3.2 9.7 0.00 0.00 0.38 77 1009.0
20260505234327 14 277 8.0 14.5 0.00 0.00 0.38 76 1008.8
20260505233827 14 335 3.2 9.7 0.00 0.00 0.38 78 1008.6
20260505233328 14 344 6.4 11.3 0.00 0.00 0.38 77 1008.5
20260505232828 14 31 4.8 9.7 0.00 0.00 0.38 79 1008.2
20260505232327 14 19 6.4 11.3 0.00 0.00 0.38 83 1008.0